Williston, ND

10:45 PM CST on November 24, 2017 (GMT -0600)
Sloulin International

Weather History for KISN - October, 2014

Change the Weather History Date:

Tuesday, October 28, 2014

  Actual Average Record
Temperature  
Mean Temperature 31 °F 38 °F  
Max Temperature 40 °F 50 °F 80 °F (1937)
Min Temperature 22 °F 25 °F 2 °F (1925)
Degree Days  
Heating Degree Days 34 28  
Month to date heating degree days 475 597  
Since 1 July heating degree days 782 943  
Cooling Degree Days 0 0  
Month to date cooling degree days 0 0  
Year to date cooling degree days 425 455  
Moisture  
Dew Point 32 °F    
Average Humidity 78    
Maximum Humidity 92    
Minimum Humidity 64    
Precipitation  
Precipitation 0.01 in 0.03 in 0.21 in (1929)
Month to date precipitation 0.25 0.84  
Year to date precipitation 10.03 13.02  
Sea Level Pressure  
Sea Level Pressure 30.08 in    
Wind  
Wind Speed 10 mph (NW)    
Max Wind Speed 21 mph    
Max Gust Speed 25 mph    
Visibility 10 miles    
Events Rain    
T = Trace of Precipitation, MM = Missing Value Source: NWS Daily Summary

Daily Weather History Graph

Daily Weather History Graph

Search for Another Location

Airport or City:

Trip Planner

Search our weather history database for the weather conditions in past years. The results will help you decide how hot, cold, wet, or windy it might be!

Date:

Astronomy

Oct. 28, 2014 Rise Set
Actual Time 8:33 AM CDT 6:42 PM CDT
Civil Twilight 8:01 AM CDT 7:14 PM CDT
Nautical Twilight 7:24 AM CDT 7:50 PM CDT
Astronomical Twilight 6:48 AM CDT 8:26 PM CDT
Moon 1:13 PM CDT (10/28) 10:42 PM CDT (10/28)
Length of Visible Light 11h 12m
Length of Day
10h 08m
Waxing Crescent, 24% of the Moon is Illuminated
Oct 28
Waxing Crescent
Oct 30
First Quarter
Nov 6
Full
Nov 14
Last Quarter
Nov 22
New

Hourly Weather History & Observations

Time (CDT) Temp. Windchill Dew Point Humidity Pressure Visibility Wind Dir Wind Speed Gust Speed Precip Events Conditions
12:31 AM 36.0 °F 26.7 °F 34.0 °F 93% 29.92 in 10.0 mi NW 15.0 mph - 0.00 in   Overcast
12:44 AM 37.0 °F 28.1 °F 34.0 °F 89% 29.93 in 10.0 mi NW 15.0 mph - 0.00 in   Overcast
12:52 AM 36.0 °F 26.3 °F 34.0 °F 93% 29.99 in 10.0 mi NW 16.1 mph - 0.00 in   Overcast
1:19 AM 37.0 °F 28.5 °F 34.0 °F 89% 29.93 in 10.0 mi NW 13.8 mph - N/A   Overcast
1:25 AM 37.0 °F 28.9 °F 34.0 °F 89% 29.94 in 9.0 mi WNW 12.7 mph - N/A   Overcast
1:52 AM 37.0 °F 28.5 °F 34.0 °F 89% 30.00 in 10.0 mi NW 13.8 mph 21.9 mph N/A   Overcast
2:52 AM 37.0 °F 28.5 °F 34.0 °F 89% 30.02 in 10.0 mi WNW 13.8 mph - N/A   Overcast
3:52 AM 36.0 °F 27.1 °F 33.1 °F 89% 30.04 in 10.0 mi NW 13.8 mph - N/A   Overcast
4:00 AM 36.0 °F 27.1 °F 33.1 °F 89% 29.98 in 10.0 mi NW 13.8 mph - N/A   Overcast
4:52 AM 35.6 °F 27.1 °F 33.8 °F 93% 29.99 in 10.0 mi NW 12.7 mph - N/A   Overcast
5:27 AM 36.0 °F 28.0 °F 33.1 °F 89% 30.00 in 9.0 mi NW 11.5 mph - 0.00 in Rain Light Rain
5:38 AM 36.0 °F 26.3 °F 33.1 °F 89% 30.00 in 10.0 mi NW 16.1 mph 20.7 mph 0.00 in   Overcast
5:43 AM 36.0 °F 26.7 °F 33.1 °F 89% 30.00 in 10.0 mi NW 15.0 mph - 0.00 in Rain Light Rain
5:50 AM 35.6 °F 26.2 °F 33.8 °F 93% 30.00 in 10.0 mi NW 15.0 mph - 0.00 in Rain Light Rain
5:52 AM 36.0 °F 27.5 °F 33.1 °F 89% 30.06 in 10.0 mi WNW 12.7 mph - 0.00 in   Overcast
6:07 AM 36.0 °F 26.7 °F 33.1 °F 89% 30.00 in 9.0 mi WNW 15.0 mph - N/A   Overcast
6:52 AM 36.0 °F 26.7 °F 33.1 °F 89% 30.08 in 10.0 mi NW 15.0 mph - N/A   Overcast
7:52 AM 36.0 °F 26.0 °F 32.0 °F 86% 30.09 in 10.0 mi NW 17.3 mph - N/A   Overcast
8:05 AM 36.0 °F 27.1 °F 32.0 °F 86% 30.03 in 10.0 mi NW 13.8 mph - N/A   Overcast
8:26 AM 35.6 °F 25.5 °F 32.0 °F 87% 30.03 in 10.0 mi NW 17.3 mph - N/A   Overcast
8:52 AM 35.1 °F 24.8 °F 30.9 °F 85% 30.11 in 10.0 mi NNW 17.3 mph - N/A   Scattered Clouds
9:52 AM 36.0 °F 29.0 °F 32.0 °F 86% 30.14 in 10.0 mi NW 9.2 mph - N/A   Overcast
10:26 AM 37.0 °F 28.1 °F 32.0 °F 82% 30.09 in 10.0 mi NW 15.0 mph - N/A   Overcast
10:52 AM 37.0 °F 28.5 °F 33.1 °F 86% 30.16 in 10.0 mi WNW 13.8 mph - N/A   Overcast
11:52 AM 37.0 °F 27.4 °F 33.1 °F 86% 30.16 in 10.0 mi WNW 17.3 mph 23.0 mph 0.00 in   Overcast
12:05 PM 37.4 °F 29.8 °F 33.8 °F 87% 30.10 in 10.0 mi WNW 11.5 mph - N/A Rain Light Rain
12:33 PM 37.9 °F 28.9 °F 34.0 °F 86% 30.10 in 10.0 mi NW 16.1 mph 21.9 mph 0.01 in Rain Light Rain
12:52 PM 37.9 °F 28.9 °F 33.1 °F 83% 30.17 in 10.0 mi NW 16.1 mph - 0.01 in   Overcast
1:26 PM 37.0 °F 29.8 °F 34.0 °F 89% 30.11 in 8.0 mi NNW 10.4 mph - 0.00 in Rain Light Rain
1:42 PM 37.9 °F 30.0 °F 34.0 °F 86% 30.11 in 10.0 mi NNW 12.7 mph - 0.00 in   Overcast
1:52 PM 37.9 °F 30.9 °F 34.0 °F 86% 30.17 in 10.0 mi NNW 10.4 mph - 0.00 in   Overcast
2:52 PM 39.0 °F 31.4 °F 32.0 °F 76% 30.16 in 10.0 mi WNW 12.7 mph - 0.00 in   Overcast
3:52 PM 39.0 °F 32.3 °F 30.0 °F 70% 30.16 in 10.0 mi WNW 10.4 mph - N/A   Overcast
4:52 PM 39.0 °F 31.8 °F 30.0 °F 70% 30.17 in 10.0 mi West 11.5 mph - N/A   Overcast
5:08 PM 39.0 °F 31.8 °F 30.0 °F 70% 30.11 in 10.0 mi WNW 11.5 mph - N/A   Overcast
5:52 PM 39.0 °F 32.8 °F 28.9 °F 67% 30.17 in 10.0 mi West 9.2 mph - N/A   Overcast
6:52 PM 37.9 °F 32.7 °F 28.9 °F 70% 30.18 in 10.0 mi WNW 6.9 mph - N/A   Overcast
7:52 PM 37.0 °F 31.0 °F 28.0 °F 70% 30.19 in 10.0 mi WNW 8.1 mph - N/A   Overcast
8:52 PM 35.1 °F - 27.0 °F 72% 30.19 in 10.0 mi Calm Calm - N/A   Overcast
9:09 PM 33.8 °F 30.8 °F 26.6 °F 75% 30.12 in 10.0 mi NNW 3.5 mph - N/A   Scattered Clouds
9:52 PM 25.0 °F - 21.9 °F 88% 30.20 in 10.0 mi Calm Calm - N/A   Clear
10:52 PM 23.0 °F - 19.9 °F 88% 30.19 in 10.0 mi Calm Calm - N/A   Clear
11:52 PM 21.9 °F - 19.9 °F 92% 30.18 in 10.0 mi Calm Calm - N/A   Clear